Location: Seven Kings
(51.5667°N, 0.1000°E)
Time: 03:19:10
(UTC+00:00)

GEOS 3 Rocket - Pass Details

Date: 29 October 2020
Orbit: 770 x 850 km, 115.0° (Epoch: 27 November)

Event Time Altitude Azimuth Distance (km) Brightness Sun altitude
Exits shadow 18:17:20 22° 112° (ESE) 1,760 4.8 -16.0°
Maximum altitude 18:20:47 61° 39° (NE) 954 3.8 -16.6°
Drops below altitude 10° 18:26:06 10° 320° (NW) 2,483 6.7 -17.4°
Sets 18:28:28 0° 318° (NW) 3,424 7.5 -17.8°
